Windsor Locks, CT

4:59 PM EDT on September 23, 2017 (GMT -0400)
Bradley International

Weather History for KBDL - November, 2012

Change the Weather History Date:

Thursday, November 1, 2012

  Actual Average Record
Temperature  
Mean Temperature 49 °F 47 °F  
Max Temperature 55 °F 57 °F 81 °F (1974)
Min Temperature 42 °F 37 °F 23 °F (1925)
Degree Days  
Heating Degree Days 16 18  
Month to date heating degree days 16 18  
Since 1 July heating degree days 395 547  
Cooling Degree Days 0 0  
Month to date cooling degree days 0 0  
Year to date cooling degree days 981 756  
Moisture  
Dew Point 37 °F    
Average Humidity 63    
Maximum Humidity 76    
Minimum Humidity 50    
Precipitation  
Precipitation T in 0.13 in 1.94 in (1988)
Month to date precipitation T 0.13  
Year to date precipitation 33.49 38.65  
Snow  
Snow 0.00 in 0.00 in T in (1965)
Month to date snowfall 0.0 0.0  
Since 1 July snowfall 0.0 0.0  
Since 1 September snowfall 0.0 0.0  
Snow Depth 0.00 in    
Sea Level Pressure  
Sea Level Pressure 29.54 in    
Wind  
Wind Speed 7 mph (SSW)    
Max Wind Speed 14 mph    
Max Gust Speed 18 mph    
Visibility 10 miles    
Events      
T = Trace of Precipitation, MM = Missing Value Source: NWS Daily Summary

Daily Weather History Graph

Daily Weather History Graph

Search for Another Location

Airport or City:

Trip Planner

Search our weather history database for the weather conditions in past years. The results will help you decide how hot, cold, wet, or windy it might be!

Date:

Astronomy

Nov. 01, 2012 Rise Set
Actual Time 7:23 AM EDT 5:44 PM EDT
Civil Twilight 6:54 AM EDT 6:13 PM EDT
Nautical Twilight 6:21 AM EDT 6:46 PM EDT
Astronomical Twilight 5:49 AM EDT 7:18 PM EDT
Moon 7:37 PM EDT (11/1) 9:56 AM EDT (11/1)
Length of Visible Light 11h 18m
Length of Day
10h 20m
Waning Gibbous, 93% of the Moon is Illuminated
Nov 1
Waning Gibbous
Nov 6
Last Quarter
Nov 13
New
Nov 20
First Quarter
Nov 28
Full

Hourly Weather History & Observations

Time (EDT) Temp. Windchill Dew Point Humidity Pressure Visibility Wind Dir Wind Speed Gust Speed Precip Events Conditions
12:51 AM 48.0 °F - 37.0 °F 66% 29.55 in 10.0 mi SSW 5.8 mph - N/A   Overcast
1:51 AM 46.0 °F 41.9 °F 37.0 °F 71% 29.55 in 10.0 mi SSW 8.1 mph - N/A   Scattered Clouds
2:51 AM 44.1 °F 40.1 °F 36.0 °F 73% 29.55 in 10.0 mi SSW 6.9 mph - N/A   Scattered Clouds
3:51 AM 44.1 °F 40.8 °F 36.0 °F 73% 29.53 in 10.0 mi South 5.8 mph - N/A   Mostly Cloudy
4:51 AM 44.1 °F 40.8 °F 36.0 °F 73% 29.54 in 10.0 mi South 5.8 mph - N/A   Mostly Cloudy
5:51 AM 44.1 °F 40.1 °F 36.0 °F 73% 29.54 in 10.0 mi South 6.9 mph - N/A   Mostly Cloudy
6:51 AM 44.1 °F 40.1 °F 36.0 °F 73% 29.54 in 10.0 mi South 6.9 mph - N/A   Mostly Cloudy
7:51 AM 43.0 °F 38.8 °F 36.0 °F 76% 29.55 in 10.0 mi South 6.9 mph - N/A   Mostly Cloudy
8:16 AM 44.6 °F 40.7 °F 35.6 °F 71% 29.55 in 10.0 mi South 6.9 mph - N/A   Mostly Cloudy
8:45 AM 46.4 °F 42.4 °F 35.6 °F 66% 29.55 in 10.0 mi SSW 8.1 mph - N/A   Mostly Cloudy
8:51 AM 46.0 °F 41.9 °F 37.0 °F 71% 29.55 in 10.0 mi South 8.1 mph - N/A   Mostly Cloudy
9:51 AM 48.9 °F - 37.0 °F 64% 29.56 in 10.0 mi South 5.8 mph - N/A   Mostly Cloudy
10:18 AM 48.2 °F - 37.4 °F 66% 29.55 in 10.0 mi SSW 3.5 mph - N/A   Mostly Cloudy
10:51 AM 50.0 °F - 37.0 °F 61% 29.55 in 10.0 mi SSW 9.2 mph - N/A   Mostly Cloudy
11:40 AM 51.8 °F - 37.4 °F 58% 29.54 in 10.0 mi SSW 10.4 mph - N/A   Mostly Cloudy
11:51 AM 51.1 °F - 37.9 °F 61% 29.55 in 10.0 mi South 5.8 mph - N/A   Mostly Cloudy
12:51 PM 53.1 °F - 37.0 °F 55% 29.53 in 10.0 mi SSW 9.2 mph - N/A   Mostly Cloudy
1:51 PM 54.0 °F - 37.0 °F 53% 29.51 in 10.0 mi WSW 10.4 mph - N/A   Mostly Cloudy
2:51 PM 53.1 °F - 36.0 °F 52% 29.51 in 10.0 mi WSW 8.1 mph - N/A   Mostly Cloudy
3:51 PM 53.1 °F - 36.0 °F 52% 29.52 in 10.0 mi SW 9.2 mph - N/A   Overcast
4:51 PM 52.0 °F - 37.0 °F 57% 29.52 in 10.0 mi WSW 10.4 mph - N/A   Overcast
5:51 PM 51.1 °F - 37.0 °F 59% 29.53 in 10.0 mi West 8.1 mph - N/A   Overcast
6:51 PM 48.9 °F - 37.9 °F 66% 29.55 in 10.0 mi WSW 4.6 mph - N/A   Mostly Cloudy
7:51 PM 48.0 °F - 37.9 °F 68% 29.55 in 10.0 mi SW 5.8 mph - N/A   Scattered Clouds
8:51 PM 46.9 °F - 39.0 °F 74% 29.56 in 10.0 mi WSW 6.9 mph - N/A   Scattered Clouds
9:51 PM 48.0 °F - 39.0 °F 71% 29.57 in 10.0 mi WSW 6.9 mph - N/A   Overcast
10:51 PM 48.0 °F - 39.0 °F 71% 29.57 in 10.0 mi WSW 9.2 mph - N/A   Overcast
11:51 PM 46.9 °F - 39.9 °F 77% 29.57 in 10.0 mi West 5.8 mph - 0.00 in   Overcast